Date String (YYYY-MM-DD hh:mm:ss) UTC,Instrument flags,absolute air pressure of the measurement (hPa),sample flow rate (lpm),inlet stack bypass flow (lpm),air temperature of the measurement (°C),ambient temperature measured by the external sensor (°C),aerosol sample conditioner tube jacket temperature (°C),OPC LED temperature (°C),internal box temperature (°C),relative humidity of the measurement (%),span deviation,mass concentration of particles derived from Lorenz-Mie calculation of OPC scattering (μg/m³),mass concentration of particles derived from Lorenz-Mie calculation of OPC scattering (μg/m³),mass concentration of particles derived from Lorenz-Mie calculation of OPC scattering (μg/m³)
DateTimeUTC,F1_M11,P_M11,Q1_M11,Q2_M11,T1_M11,T2_M11,T3_M11,T4_M11,T5_M11,U1_M11,ZSPAN_M11,X0_M11,X2_M11,X1_M11
2024-02-24 10:00:00,SystemResetWarning,0828.7,5.00,000.00,018.3,017.5,000.0,026.9,020.0,09.4,0000.0,0004.22,0001.47,0000.94
2024-02-24 10:01:00,SystemResetWarning,0828.7,5.00,000.00,018.3,017.4,000.0,026.9,020.0,09.4,0000.0,0004.11,0001.46,0000.96
2024-02-24 10:02:00,SystemResetWarning,0828.7,5.00,000.00,018.3,017.4,000.0,026.9,020.0,09.5,0000.0,0004.13,0001.43,0000.96
2024-02-24 10:03:00,SystemResetWarning,0828.7,5.00,000.00,018.3,017.4,000.0,026.9,020.0,09.6,0000.0,0003.72,0001.42,0000.98
2024-02-24 10:04:00,SystemResetWarning,0828.6,4.99,000.00,018.3,017.4,000.0,026.9,020.0,09.5,0000.0,0004.84,0001.43,0000.99
2024-02-24 10:05:00,SystemResetWarning,0828.6,4.99,000.00,018.3,017.4,000.0,026.9,020.0,09.6,0000.0,0005.05,0001.51,0001.00
2024-02-24 10:06:00,SystemResetWarning,0828.6,5.01,000.00,018.3,017.4,000.0,026.9,020.0,09.6,0000.0,0005.18,0001.55,0001.00
2024-02-24 10:07:00,SystemResetWarning,0828.6,5.01,000.00,018.3,017.4,000.0,026.9,020.0,09.7,0000.0,0004.99,0001.53,0001.00
2024-02-24 10:08:00,SystemResetWarning,0828.6,4.99,000.00,018.3,017.3,000.0,026.9,020.0,09.8,0000.0,0004.91,0001.49,0001.00
2024-02-24 10:09:00,SystemResetWarning,0828.4,5.00,000.00,018.3,017.3,000.0,026.9,020.0,09.8,0000.0,0004.17,0001.47,0000.98
2024-02-24 10:10:00,SystemResetWarning,0828.5,5.00,000.00,018.3,017.4,000.0,026.9,020.0,09.3,0000.0,0004.02,0001.49,0000.98
2024-02-24 10:11:00,SystemResetWarning,0828.5,5.00,000.00,018.3,017.4,000.0,027.0,020.0,08.9,0000.0,0004.02,0001.52,0000.99
2024-02-24 10:12:00,SystemResetWarning,0828.5,5.00,000.00,018.3,017.4,000.0,027.0,020.0,09.1,0000.0,0004.10,0001.53,0000.98
2024-02-24 10:13:00,SystemResetWarning,0828.4,5.00,000.00,018.3,017.4,000.0,027.0,020.0,08.7,0000.0,0004.04,0001.56,0001.00
2024-02-24 10:14:00,SystemResetWarning,0828.4,5.00,000.00,018.3,017.4,000.0,026.9,020.0,08.5,0000.0,0004.13,0001.60,0001.00
2024-02-24 10:15:00,SystemResetWarning,0828.4,5.00,000.00,018.3,017.4,000.0,026.9,020.0,08.4,0000.0,0002.92,0001.58,0001.00
2024-02-24 10:16:00,SystemResetWarning,0828.3,5.00,000.00,018.3,017.4,000.0,026.9,020.0,08.4,0000.0,0002.61,0001.48,0001.00
2024-02-24 10:17:00,SystemResetWarning,0828.4,5.00,000.00,018.3,017.4,000.0,026.9,020.0,08.8,0000.0,0002.77,0001.46,0001.00
2024-02-24 10:18:00,SystemResetWarning,0828.4,5.00,000.00,018.3,017.4,000.0,026.9,020.0,08.9,0000.0,0003.77,0001.45,0001.03
2024-02-24 10:19:00,SystemResetWarning,0828.4,5.00,000.00,018.3,017.3,000.0,026.9,020.0,08.5,0000.0,0003.75,0001.47,0001.04
2024-02-24 10:20:00,SystemResetWarning,0828.4,5.00,000.00,018.3,017.3,000.0,026.9,020.0,08.5,0000.0,0003.72,0001.48,0001.06
2024-02-24 10:21:00,SystemResetWarning,0828.4,5.00,000.00,018.3,017.3,000.0,026.9,020.0,09.0,0000.0,0003.74,0001.48,0001.07
2024-02-24 10:22:00,SystemResetWarning,0828.3,5.00,000.00,018.3,017.3,000.0,026.9,020.0,08.9,0000.0,0005.51,0001.46,0001.07
2024-02-24 10:23:00,SystemResetWarning,0828.3,5.00,000.00,018.3,017.3,000.0,026.9,020.0,08.9,0000.0,0005.52,0001.47,0001.07
2024-02-24 10:24:00,SystemResetWarning,0828.3,5.01,000.00,018.3,017.3,000.0,026.9,020.0,09.3,0000.0,0006.25,0001.43,0001.06
2024-02-24 10:25:00,SystemResetWarning,0828.3,5.00,000.00,018.3,017.3,000.0,026.9,020.0,09.3,0000.0,0006.73,0001.42,0001.04
2024-02-24 10:26:00,SystemResetWarning,0828.3,4.99,000.00,018.3,017.4,000.0,027.0,020.0,08.9,0000.0,0006.68,0001.40,0001.03
2024-02-24 10:27:00,SystemResetWarning,0828.3,4.99,000.00,018.3,017.4,000.0,027.0,020.0,09.1,0000.0,0006.87,0001.46,0001.02
2024-02-24 10:28:00,SystemResetWarning,0828.2,5.00,000.00,018.3,017.4,000.0,026.9,020.0,09.0,0000.0,0007.00,0001.51,0001.01
2024-02-24 10:29:00,SystemResetWarning,0828.2,5.00,000.00,018.3,017.4,000.0,026.9,020.0,08.8,0000.0,0005.65,0001.48,0000.98
2024-02-24 10:30:00,SystemResetWarning,0828.1,5.00,000.00,018.3,017.3,000.0,026.9,020.0,08.8,0000.0,0005.60,0001.45,0000.95
2024-02-24 10:31:00,SystemResetWarning,0828.2,5.00,000.00,018.3,017.3,000.0,026.9,020.0,08.8,0000.0,0005.59,0001.43,0000.93
2024-02-24 10:32:00,SystemResetWarning,0828.2,5.00,000.00,018.3,017.3,000.0,026.9,020.0,08.9,0000.0,0005.57,0001.43,0000.91
2024-02-24 10:33:00,SystemResetWarning,0828.1,5.01,000.00,018.3,017.2,000.0,026.9,020.0,09.0,0000.0,0004.38,0001.44,0000.91
2024-02-24 10:34:00,SystemResetWarning,0828.1,5.01,000.00,018.3,017.2,000.0,026.9,020.0,08.8,0000.0,0004.16,0001.43,0000.90
2024-02-24 10:35:00,SystemResetWarning,0828.1,5.00,000.00,018.3,017.2,000.0,026.9,020.0,08.8,0000.0,0003.75,0001.41,0000.89
2024-02-24 10:36:00,SystemResetWarning,0828.0,5.00,000.00,018.3,017.2,000.0,026.9,020.0,08.8,0000.0,0002.83,0001.41,0000.90
2024-02-24 10:37:00,SystemResetWarning,0828.0,5.00,000.00,018.3,017.2,000.0,026.9,020.0,08.9,0000.0,0002.80,0001.42,0000.90
2024-02-24 10:38:00,SystemResetWarning,0828.0,5.00,000.00,018.3,017.2,000.0,026.9,020.0,08.9,0000.0,0002.78,0001.41,0000.91
2024-02-24 10:39:00,SystemResetWarning,0828.0,5.00,000.00,018.3,017.1,000.0,026.9,020.0,08.8,0000.0,0002.74,0001.37,0000.92
2024-02-24 10:40:00,SystemResetWarning,0827.9,5.00,000.00,018.3,017.1,000.0,026.9,020.0,08.9,0000.0,0003.55,0001.40,0000.93
2024-02-24 10:41:00,SystemResetWarning,0827.9,5.00,000.00,018.3,017.1,000.0,026.9,020.0,09.0,0000.0,0003.67,0001.42,0000.94
2024-02-24 10:42:00,SystemResetWarning,0827.9,5.00,000.00,018.3,017.2,000.0,027.0,020.1,09.0,0000.0,0004.66,0001.44,0000.95
2024-02-24 10:43:00,SystemResetWarning,0828.0,5.01,000.00,018.4,018.0,000.0,027.0,020.4,08.9,0000.0,0005.67,0001.45,0000.96
2024-02-24 10:44:00,SystemResetWarning,0828.0,4.99,000.00,018.6,018.7,000.0,027.1,020.8,08.8,0000.0,0005.67,0001.44,0000.96
2024-02-24 10:45:00,SystemResetWarning,0828.0,4.99,000.00,018.7,018.7,000.0,027.0,020.8,08.6,0000.0,0005.34,0001.43,0000.95
2024-02-24 10:46:00,SystemResetWarning,0827.9,5.00,000.00,018.7,018.6,000.0,027.0,020.6,08.5,0000.0,0005.53,0001.48,0000.96
2024-02-24 10:47:00,SystemResetWarning,0827.9,5.01,000.00,018.7,018.4,000.0,027.0,020.4,08.4,0000.0,0005.57,0001.47,0000.95
2024-02-24 10:48:00,SystemResetWarning,0827.8,4.99,000.00,018.6,018.3,000.0,026.9,020.3,08.2,0000.0,0006.44,0001.44,0000.95
2024-02-24 10:49:00,SystemResetWarning,0828.1,4.98,000.00,018.6,018.1,000.0,026.9,020.3,08.2,0000.0,0006.66,0001.45,0000.94
2024-02-24 10:50:00,SystemResetWarning,0828.1,5.00,000.00,018.6,018.0,000.0,026.9,020.2,09.9,0000.0,0006.62,0001.45,0000.93
2024-02-24 10:51:00,SystemResetWarning,0828.1,5.01,000.00,018.5,017.9,000.0,026.9,020.1,10.2,0000.0,0006.05,0001.48,0000.93
2024-02-24 10:52:00,SystemResetWarning,0828.0,5.02,000.00,018.5,017.9,000.0,026.9,020.1,10.2,0000.0,0006.09,0001.53,0000.93
2024-02-24 10:53:00,SystemResetWarning,0828.0,4.99,000.00,018.5,017.8,000.0,026.9,020.1,10.2,0000.0,0005.22,0001.53,0000.93
2024-02-24 10:54:00,SystemResetWarning,0828.0,4.99,000.00,018.4,017.8,000.0,026.9,020.1,10.4,0000.0,0004.13,0001.54,0000.93
2024-02-24 10:55:00,SystemResetWarning,0828.1,5.01,000.00,018.4,017.8,000.0,026.9,020.1,10.2,0000.0,0004.80,0001.56,0000.94
2024-02-24 10:56:00,SystemResetWarning,0827.9,5.01,000.00,018.4,017.7,000.0,026.9,020.1,10.2,0000.0,0004.86,0001.62,0000.96
2024-02-24 10:57:00,SystemResetWarning,0828.0,4.99,000.00,018.4,017.7,000.0,026.9,020.1,10.0,0000.0,0004.87,0001.63,0000.97
2024-02-24 10:58:00,SystemResetWarning,0827.9,5.00,000.00,018.4,017.7,000.0,026.9,020.1,09.8,0000.0,0006.49,0001.70,0000.99
2024-02-24 10:59:00,SystemResetWarning,0827.9,4.99,000.00,018.4,017.7,000.0,026.9,020.0,09.5,0000.0,0006.16,0001.82,0001.01
